Probability
0 0 0 0 0 0 0 0 0 0 0 0 0 0 0 0 0 0 0 0 0 0 0 1 0 0 0 0 0 0 0 0 0 0 0 0 0 0 0 0 0 0 0
0 0 1 2 1 0 0 0 0 0 0 0 0 0 0 0 0 0 0 0 0 0 0 1 0 0 0 0 0 0 0 0 0 0 0 0 0 0 0 0 0 0 0
0 0 2 9 13 12 6 2 0 0 0 0 0 0 0 0 0 0 0 0 0 0 0 0 0 0 0 0 0 0 0 0 0 0 0 0 0 0 0 0 0 0 0
0 0 2 13 29 36 33 26 18 10 4 1 0 0 0 0 0 0 0 0 0 0 0 0 0 0 0 0 0 0 0 0 0 0 0 0 0 0 0 0 0 0 0
0 0 1 8 24 40 49 52 47 37 29 23 15 6 1 0 0 0 0 0 0 0 0 1 1 1 0 0 0 0 0 0 0 0 0 0 0 0 0 0 0 0 0
0 0 0 2 7 16 28 39 46 47 49 49 41 31 23 16 7 2 1 0 0 0 0 2 3 3 1 0 0 0 0 0 0 0 0 0 0 0 0 0 0 0 0
0 0 0 0 0 1 4 9 16 23 31 38 41 46 53 50 38 26 19 16 14 11 9 8 7 6 4 2 1 0 0 0 0 0 0 0 0 0 0 0 0 0 0
0 0 0 0 0 0 0 0 0 2 6 10 16 27 46 64 71 66 56 51 47 41 36 31 26 21 14 8 6 6 6 4 2 1 0 0 1 1 0 0 0 0 0
0 0 0 0 0 0 0 0 0 0 0 1 1 4 16 38 62 75 77 78 79 75 67 60 54 49 42 34 29 29 25 12 4 7 12 11 6 2 1 0 0 0 0
0 0 0 0 0 0 0 0 0 0 0 0 0 0 2 10 26 42 52 63 78 88 87 78 72 73 76 72 67 63 44 17 11 27 45 40 22 9 6 3 1 0 0
0 0 0 0 0 0 0 0 0 0 0 0 0 0 0 1 5 11 16 26 46 68 82 84 80 82 83 80 78 70 45 19 20 47 71 66 41 29 28 20 9 2 0
0 0 0 0 0 0 0 0 0 0 0 0 0 0 0 0 0 1 1 5 14 30 54 75 84 82 73 69 70 59 37 21 25 43 63 63 46 43 54 49 27 8 0
0 0 0 0 0 0 0 0 0 0 0 0 0 0 0 0 0 0 0 1 2 7 22 46 66 68 61 64 67 57 39 27 24 27 35 38 33 36 52 64 51 23 6
0 0 0 0 0 0 0 0 0 0 0 0 0 0 0 0 0 0 0 0 0 2 6 17 31 38 40 45 52 48 39 31 23 18 17 15 14 17 27 49 63 49 27
0 0 0 0 0 0 0 0 0 0 0 0 0 0 0 0 0 0 0 0 0 0 1 4 7 12 17 20 22 23 23 22 18 13 9 4 3 5 8 24 51 65 59
0 0 0 0 0 0 0 0 0 0 0 0 0 0 0 0 0 0 0 0 0 0 0 1 1 3 6 8 7 7 8 8 8 7 5 2 0 1 2 8 28 59 78
0 0 0 0 0 0 0 0 0 0 0 0 0 0 0 0 0 0 0 0 0 0 0 0 0 0 1 1 1 1 2 2 2 2 2 1 0 0 1 3 11 41 71
0 0 0 0 0 0 0 0 0 0 0 0 0 0 0 0 0 0 0 0 0 0 0 0 0 0 0 0 0 0 0 0 0 0 0 0 0 0 1 2 6 26 52
0 0 0 0 0 0 0 0 0 0 0 0 0 0 0 0 0 0 0 0 0 0 0 0 0 0 0 0 0 0 0 0 0 0 0 0 0 0 2 3 5 15 28
0 0 0 0 0 0 0 0 0 0 0 0 0 0 0 0 0 0 0 0 0 0 0 0 0 0 0 0 0 0 0 0 0 0 0 0 0 0 1 3 7 12 14
0 0 0 0 0 0 0 0 0 0 0 0 0 0 0 0 0 0 0 0 0 0 0 0 0 0 0 0 0 0 0 0 0 0 0 0 0 0 0 2 9 19 22
0 0 0 0 0 0 0 0 0 0 0 0 0 0 0 0 0 0 0 0 0 0 0 0 0 0 0 0 0 0 0 0 0 0 0 1 0 0 0 1 10 28 42
0 0 0 0 0 0 0 0 0 0 0 0 0 0 0 0 0 0 0 0 0 0 0 0 0 0 0 0 0 0 0 0 0 0 0 0 0 0 0 2 10 32 52
0 0 0 0 0 0 0 0 0 0 0 0 0 0 0 0 0 0 0 0 0 0 0 0 0 0 0 0 0 0 0 0 0 0 0 0 0 0 0 2 11 32 51
0 0 0 0 0 0 0 0 0 0 0 0 0 0 0 0 0 0 0 0 0 0 0 0 0 0 0 0 0 0 0 0 0 0 0 0 0 0 0 3 11 26 38
0 0 0 0 0 0 0 0 0 0 0 0 0 0 0 0 0 0 0 0 0 0 0 0 0 0 0 0 0 0 0 0 0 0 0 0 0 0 0 3 9 19 25
Wind_Speed
15 11 11 11 11 11 10 11 11 12 12 9 7 8 9 9 8 7 6 5 4 4 4 3 3 3 2 2 2 2 3 3 2 2 4 6 7 7 7 7 6 5 6
15 12 12 12 12 12 12 11 11 12 12 12 10 10 10 10 10 9 8 8 7 6 6 6 6 5 5 4 4 3 3 3 2 1 1 6 7 7 8 6 5 4 6
19 18 19 19 15 13 12 12 11 11 12 12 11 11 11 11 11 11 10 10 9 9 9 9 9 8 7 6 6 5 5 5 5 3 4 6 7 8 8 7 4 5 6
20 20 23 27 25 20 17 14 13 12 12 12 11 12 12 11 11 12 11 11 11 10 10 10 10 9 8 7 7 7 7 7 6 6 7 6 6 8 8 8 7 6 6
17 18 22 28 29 29 27 23 19 17 16 15 13 13 14 13 12 12 12 12 11 11 10 10 10 11 10 8 9 9 9 8 7 9 7 5 5 7 8 8 8 7 7
18 18 23 29 29 29 29 29 28 26 23 20 18 16 16 15 15 14 14 13 12 11 10 9 8 9 9 9 9 10 10 9 9 10 7 7 6 7 9 9 8 8 7
21 20 23 29 29 29 29 28 28 28 27 27 25 23 20 17 16 15 14 13 12 12 11 9 8 7 7 7 8 9 9 8 11 8 8 8 6 6 10 10 10 9 9
21 21 22 27 28 28 29 29 28 28 26 26 26 25 24 21 18 16 14 13 13 13 12 10 9 8 7 6 7 7 7 7 11 10 9 9 6 6 11 12 12 11 11
22 22 21 22 23 24 25 28 27 28 27 26 27 27 24 22 21 19 16 15 14 14 12 11 11 10 9 7 6 5 5 5 10 8 9 8 6 8 11 13 14 13 12
22 22 22 22 21 20 19 24 25 25 26 26 25 26 24 21 20 19 18 18 17 16 13 12 12 11 10 9 7 6 5 6 11 9 7 6 6 8 10 11 14 15 14
22 21 21 21 21 20 18 19 20 20 22 22 21 25 20 15 15 14 18 19 19 18 16 14 13 12 10 10 10 7 7 8 8 7 7 4 5 9 10 10 12 14 15
23 22 20 21 21 20 15 15 13 13 15 16 16 19 15 14 13 15 17 18 18 17 16 13 14 13 12 9 9 9 7 9 8 7 6 6 7 9 11 11 12 15 16
20 20 20 19 19 18 14 13 10 9 10 13 16 18 15 13 12 12 10 11 12 13 11 11 10 8 10 8 7 8 8 7 6 6 6 9 10 11 11 12 13 15 17
19 20 20 20 18 18 16 12 12 10 10 11 13 16 14 10 12 12 10 12 10 8 10 9 7 10 10 11 12 11 10 7 7 6 5 8 10 12 13 13 13 14 17
20 21 21 20 20 18 15 13 12 12 12 13 11 12 15 12 12 13 11 11 12 11 11 11 9 10 10 9 9 11 11 11 10 9 5 8 11 12 14 14 15 15 16
19 20 19 20 20 19 16 15 13 13 13 12 12 14 15 13 13 13 12 12 12 12 13 12 13 11 8 7 9 10 11 11 10 10 9 8 11 13 14 15 16 16 16
18 18 18 18 19 19 18 17 13 12 13 12 12 14 16 16 15 14 12 11 11 13 15 13 14 11 9 8 9 10 10 11 11 11 11 9 8 12 14 15 16 17 17
17 18 18 16 19 19 17 16 13 13 13 12 12 12 16 17 17 14 12 11 13 12 11 11 12 11 11 10 9 9 9 9 12 12 11 10 9 8 11 15 16 17 18
18 18 19 19 19 19 17 15 14 13 13 12 11 12 15 16 17 15 12 12 14 11 10 11 11 12 12 12 11 10 10 9 10 11 12 12 11 10 10 10 15 16 17
18 18 19 19 19 18 15 13 12 13 12 12 12 13 16 14 16 14 12 14 14 11 11 11 13 12 12 12 12 12 11 11 10 11 12 11 10 12 12 12 10 12 17
17 19 20 20 19 17 14 15 15 14 13 12 12 16 17 16 17 15 12 13 13 12 14 14 13 14 12 11 11 12 13 14 14 11 11 11 12 12 12 12 11 10 9
17 18 19 19 18 17 15 14 13 14 13 12 13 15 17 18 18 14 15 13 14 13 15 14 14 11 10 9 9 10 11 12 13 12 12 12 12 11 12 13 12 12 10
17 17 16 18 18 17 18 13 13 12 12 12 14 13 16 18 18 16 16 15 15 13 13 15 14 14 11 11 10 8 9 10 9 10 13 12 13 11 11 11 13 13 13
16 15 16 17 17 17 17 15 18 14 14 16 14 14 17 18 17 17 16 16 15 13 14 14 13 12 12 11 10 10 11 12 10 9 8 9 12 12 12 10 11 12 12
15 14 15 17 16 17 17 17 17 15 14 14 15 17 17 16 16 17 17 16 16 14 15 15 15 14 10 11 10 10 12 11 13 12 12 9 8 8 9 10 9 9 11
15 14 14 16 17 17 18 18 18 19 19 19 19 18 16 14 14 17 18 17 17 15 15 15 15 15 12 13 11 10 11 10 9 10 13 13 11 9 9 8 8 8 8
Wind_Direction
348 356 3 1 2 357 353 353 356 357 355 354 356 358 354 351 351 351 347 339 332 323 314 301 286 282 275 260 235 186 152 145 146 178 194 181 170 164 158 157 181 155 128
351 8 8 3 358 352 350 349 348 346 347 352 354 351 344 337 334 331 329 326 319 309 301 294 283 272 263 252 235 213 181 160 151 138 181 186 177 177 174 180 236 120 150
4 10 10 6 356 348 345 341 338 336 333 333 335 335 330 325 322 320 320 322 322 314 301 290 281 272 263 256 244 228 211 193 184 172 216 202 177 182 183 188 204 159 168
12 18 16 17 14 6 355 344 339 335 327 320 317 315 311 308 307 308 309 310 315 316 306 291 281 273 261 253 246 237 228 211 196 196 219 200 187 169 184 192 201 193 186
21 21 20 23 25 24 20 11 359 346 334 325 315 308 304 298 295 297 298 298 301 305 303 295 282 271 260 245 239 238 234 222 199 220 228 211 209 172 193 197 204 201 198
27 27 26 26 27 27 26 25 22 16 6 354 340 326 317 305 297 299 299 292 290 291 292 291 286 273 259 245 236 234 233 222 209 225 223 218 216 188 209 203 205 203 204
28 26 27 27 27 27 26 24 23 21 19 17 11 360 345 324 309 306 304 297 289 283 279 279 281 276 264 248 236 231 229 218 234 231 223 224 224 205 226 212 203 204 206
29 26 25 24 24 24 25 23 23 21 19 17 13 7 2 354 339 324 313 309 302 290 279 273 274 274 267 252 238 226 215 220 229 230 225 227 213 226 238 222 206 205 207
29 26 23 20 18 17 20 19 17 17 16 15 13 9 3 1 358 351 338 324 315 303 287 279 274 271 267 258 241 216 203 216 245 230 226 228 194 233 245 226 211 205 205
27 24 19 17 14 11 10 14 12 14 12 10 10 7 3 359 358 356 356 350 337 321 302 284 276 273 268 261 251 228 204 220 237 234 230 216 185 239 250 235 220 212 206
24 20 17 14 10 6 4 4 5 7 8 5 6 3 0 357 355 350 352 350 349 342 323 296 278 273 271 252 243 239 230 238 233 236 233 185 201 243 250 247 233 222 212
18 14 12 11 7 2 359 357 358 0 1 2 2 360 356 352 350 348 341 346 346 343 333 317 291 270 256 250 223 214 239 240 244 235 223 169 221 243 247 247 242 229 221
14 12 9 7 5 1 356 354 351 351 353 355 359 358 354 352 347 348 342 343 341 341 340 333 320 286 266 259 257 241 241 250 248 246 224 183 222 239 245 243 243 233 225
13 10 6 3 3 359 355 351 349 348 348 348 352 354 354 349 347 346 339 337 336 337 333 328 320 309 290 267 255 253 248 242 245 248 236 188 225 239 244 244 243 238 229
10 6 4 0 1 357 353 350 349 347 346 342 345 349 352 347 344 342 335 335 332 334 330 325 316 312 301 288 271 259 255 251 247 245 236 204 226 239 243 243 242 240 233
6 2 0 359 359 355 354 351 346 345 342 341 343 345 349 346 341 337 332 331 330 332 328 319 313 306 293 283 275 268 262 258 251 248 248 224 217 233 241 241 240 239 235
2 359 0 357 356 355 354 350 346 343 341 340 341 341 347 345 341 336 329 326 331 328 323 319 316 309 298 288 275 266 262 260 257 253 249 247 235 220 228 236 237 238 236
1 359 359 358 354 355 354 347 344 342 341 339 339 340 346 343 343 335 328 327 330 325 320 319 316 315 306 293 280 270 263 257 257 254 252 245 244 242 224 221 230 234 236
2 359 358 357 355 354 351 346 343 342 340 338 340 342 343 341 341 335 327 329 330 325 322 320 319 315 307 297 284 272 264 259 255 252 247 244 240 239 244 217 214 228 234
1 359 356 354 354 353 351 344 343 342 340 338 340 341 338 337 338 334 328 330 330 325 326 323 318 313 304 295 286 274 264 258 254 252 250 243 236 235 237 243 228 220 224
360 359 356 354 353 354 352 346 343 340 338 337 339 336 335 334 334 332 329 328 328 324 321 318 320 315 310 306 292 274 256 249 247 246 244 244 237 233 233 235 238 237 219
359 359 355 353 349 352 350 341 337 333 333 335 335 333 334 333 332 330 330 328 325 321 317 319 319 312 307 307 307 294 266 250 236 236 238 237 238 235 233 232 234 234 237
358 358 353 350 347 349 347 341 338 335 335 339 338 334 333 330 328 328 328 327 323 320 314 313 310 307 307 305 288 285 280 262 257 232 230 234 234 233 231 231 231 233 234
354 353 350 348 347 348 346 344 343 340 340 338 335 330 329 329 327 326 327 326 322 317 311 308 304 300 296 293 293 275 277 290 283 263 229 225 233 235 231 227 228 229 230
350 350 347 346 348 349 347 346 342 338 337 332 333 331 332 330 328 327 328 325 321 316 311 307 302 294 286 280 279 283 287 282 268 265 260 245 225 226 229 225 221 225 226
350 348 347 346 348 349 348 346 343 339 337 334 336 334 333 329 327 329 328 324 320 316 313 310 304 293 283 274 270 268 268 269 268 259 253 252 248 234 221 223 220 219 221